CW1490 Weather Reports


Display with metric or nautical units.
time (UTC)temp
F
wind
direction
speed
MPH
gust
MPH
rain 1hr
in
rain 24hr
in
rain mn
in
humidity
%
barometer
mb
20150702094446 55 350 0.0 2.0 0.00 0.90 0.01 97 1009.6
20150702093145 55 55 0.0 3.0 0.01 0.90 0.01 97 1009.6
20150702091443 56 341 0.0 5.0 0.01 0.90 0.01 97 1009.3
20150702085942 56 233 0.0 1.0 0.01 0.99 0.01 97 1009.2
20150702084441 55 246 0.0 3.0 0.01 0.99 0.01 97 1009.2
20150702082939 56 56 0.0 6.0 0.00 0.98 0.00 97 1009.1
20150702081439 56 269 0.0 3.0 0.00 0.98 0.00 97 1009.0
20150702075938 56 27 0.0 0.0 0.00 1.00 0.00 97 1009.0
20150702074437 56 16 0.0 3.0 0.00 1.00 0.00 97 1009.0
20150702072935 56 24 0.0 3.0 0.00 1.00 0.00 97 1008.9
20150702071435 56 35 0.0 4.0 0.00 1.00 0.00 97 1009.0
20150702065934 56 43 2.0 4.0 0.00 1.01 0.00 97 1009.0
20150702064433 57 3 0.0 0.0 0.00 1.01 0.00 97 1009.0
20150702062930 57 3 0.0 0.0 0.00 1.01 0.00 97 1009.2
20150702061429 57 4 0.0 0.0 0.00 1.01 0.00 97 1008.9
20150702055928 57 4 0.0 3.0 0.00 1.01 0.00 96 1009.0
20150702054428 58 213 0.0 4.0 0.00 1.01 0.00 97 1008.9
20150702052925 58 247 2.0 4.0 0.00 1.01 0.00 96 1008.8
20150702051424 58 233 1.0 4.0 0.00 1.01 0.00 97 1008.8
20150702045923 58 232 2.0 8.0 0.00 1.01 0.00 97 1008.8
20150702044422 58 168 2.0 7.0 0.00 1.01 0.00 96 1008.8
20150702042919 58 249 0.0 2.0 0.00 1.01 0.00 96 1008.7
20150702041417 59 195 1.0 4.0 0.00 1.01 0.00 96 1008.6
20150702035915 59 207 1.0 3.0 0.00 1.01 1.01 96 1008.5
20150702034415 60 215 2.0 3.0 0.00 1.01 1.01 96 1008.6
20150702032913 60 190 1.0 4.0 0.00 1.01 1.01 96 1008.4
20150702031412 60 238 1.0 3.0 0.00 1.01 1.01 96 1008.4
20150702025910 60 234 2.0 4.0 0.00 1.01 1.01 95 1008.0
20150702024409 61 144 2.0 5.0 0.00 1.01 1.01 95 1008.0
20150702022907 61 161 3.0 6.0 0.00 1.01 1.01 95 1007.8
20150702021607 61 161 1.0 6.0 0.00 1.01 1.01 95 1007.7
20150702015905 62 180 2.0 5.0 0.00 1.01 1.01 95 1007.7
20150702014405 62 205 1.0 4.0 0.00 1.01 1.01 94 1007.3
20150702012904 63 189 0.0 8.0 0.00 1.01 1.01 93 1007.1
20150702011404 63 249 2.0 5.0 0.00 1.01 1.01 93 1006.9
20150702005905 63 195 3.0 8.0 0.00 1.01 1.01 93 1006.6
20150702004403 64 249 2.0 4.0 0.00 1.01 1.01 93 1006.5
20150702002901 65 224 2.0 6.0 0.00 1.01 1.01 90 1006.5
20150702001402 66 225 2.0 8.0 0.00 1.01 1.01 89 1006.3
20150701235900 67 261 2.0 9.0 0.00 1.01 1.01 88 1006.1
20150701234400 68 267 0.0 9.0 0.00 1.01 1.01 89 1006.1
20150701232900 68 263 2.0 7.0 0.00 1.01 1.01 93 1005.8
20150701231359 68 227 2.0 4.0 0.00 1.01 1.01 91 1005.4
20150701225858 68 276 2.0 5.0 0.01 1.01 1.01 93 1005.4
20150701224358 68 178 0.0 4.0 0.03 1.01 1.01 95 1005.2
20150701222858 68 207 2.0 8.0 0.06 1.01 1.01 94 1004.9
20150701221358 68 174 2.0 7.0 0.11 1.01 1.01 95 1004.7
20150701215857 66 222 2.0 6.0 0.11 1.00 1.00 95 1004.9
20150701214356 66 186 2.0 4.0 0.09 0.98 0.98 94 1005.2
20150701212855 68 45 0.0 3.0 0.05 0.94 0.94 93 1005.1
20150701211355 69 24 0.0 3.0 0.01 0.90 0.90 92 1005.0
20150701205855 70 26 2.0 4.0 0.00 0.90 0.89 86 1004.6
20150701204354 71 32 3.0 6.0 0.00 0.90 0.89 83 1004.0
20150701202854 72 95 0.0 2.0 0.00 0.90 0.89 83 1003.9
20150701201353 73 103 1.0 3.0 0.00 0.90 0.89 79 1004.1
20150701195851 73 78 2.0 12.0 0.00 0.90 0.89 79 1004.1
20150701194351 74 49 3.0 13.0 0.00 0.90 0.89 77 1004.4
20150701192850 74 31 2.0 7.0 0.00 0.90 0.89 73 1004.2
20150701191350 77 240 4.0 14.0 0.00 0.90 0.89 70 1004.2
20150701185947 77 232 5.0 11.0 0.00 0.90 0.89 72 1004.1
20150701184345 77 205 7.0 14.0 0.01 0.90 0.89 77 1004.2
20150701182842 76 205 6.0 10.0 0.01 0.90 0.89 78 1004.3
20150701181338 75 254 6.0 11.0 0.01 0.90 0.89 81 1004.4
20150701175835 73 232 4.0 11.0 0.01 0.90 0.89 82 1004.6
20150701174334 73 197 3.0 11.0 0.00 0.89 0.88 86 1004.6
20150701172830 72 203 8.0 11.0 0.00 0.89 0.88 86 1004.7
20150701171327 71 183 7.0 12.0 0.00 0.89 0.88 88 1004.7
20150701165823 71 191 5.0 8.0 0.00 0.89 0.88 89 1005.1
20150701164321 70 233 5.0 9.0 0.00 0.89 0.88 91 1005.5
20150701162817 69 240 2.0 5.0 0.00 0.89 0.88 94 1005.7
20150701161314 69 216 4.0 6.0 0.00 0.89 0.88 95 1005.9
20150701155810 68 215 4.0 7.0 0.00 0.89 0.88 95 1006.1
20150701154310 68 253 0.0 6.0 0.01 0.89 0.88 96 1006.1
20150701152808 67 239 1.0 4.0 0.01 0.89 0.88 97 1006.1
20150701151306 66 149 1.0 2.0 0.01 0.89 0.88 97 1006.1
20150701145802 66 211 0.0 2.0 0.01 0.89 0.88 98 1006.4
20150701144300 65 213 1.0 3.0 0.00 0.88 0.87 98 1006.7
20150701142758 65 112 1.0 2.0 0.00 0.88 0.87 97 1006.8
20150701141258 65 89 0.0 2.0 0.00 0.88 0.87 97 1006.5
20150701135755 65 88 0.0 0.0 0.01 0.88 0.87 98 1006.7
20150701134253 64 88 0.0 1.0 0.02 0.88 0.87 98 1006.6
20150701131247 64 278 0.0 2.0 0.04 0.88 0.87 98 1006.8
20150701125745 64 278 0.0 7.0 0.08 0.87 0.86 98 1007.1
20150701124246 64 267 2.0 5.0 0.13 0.86 0.85 98 1007.2
20150701122744 64 263 2.0 4.0 0.38 0.85 0.84 98 1007.1
20150701121243 64 233 2.0 4.0 0.55 0.83 0.82 98 1007.2
20150701115739 64 51 3.0 6.0 0.60 0.79 0.78 98 1006.8
20150701114340 63 205 3.0 6.0 0.60 0.73 0.72 98 1008.4
20150701112737 63 173 3.0 7.0 0.32 0.45 0.44 98 1008.3
20150701111236 63 303 1.0 2.0 0.15 0.28 0.27 98 1007.9
20150701105734 62 16 0.0 5.0 0.04 0.17 0.16 98 1007.9
20150701104233 62 16 0.0 1.0 0.00 0.13 0.12 98 1007.8
20150701102733 62 16 0.0 2.0 0.00 0.13 0.12 98 1008.1
20150701101232 62 25 3.0 5.0 0.00 0.13 0.12 98 1007.9
20150701095729 62 67 0.0 3.0 0.00 0.13 0.12 98 1008.3